User: anonymous   Login
Location: Spor
(46.2167°N, 11.0500°E)
Time: 03:02:49
(UTC+00:00)
Language:

Meteor 2-10 Rocket - Orbit

View from above orbital plane
View from above orbital plane
View from above satellite
View from above satellite

Ground track
Ground track

The orbit data is extracted from the following two-line orbital elements,

1 14453U 83109B   20221.92175839 +.00000013 +00000-0 +34825-6 0  9991
2 14453 081.1664 030.6198 0104565 340.7380 018.9857 14.24731797911024
Epoch (UTC): 08 August 2020 22:07:19
Eccentricity: 0.0104565
inclination: 81.1664°
perigee height: 734 km
apogee height: 884 km
right ascension of ascending node: 30.6198°
argument of perigee: 340.7380°
revolutions per day: 14.24731797
mean anomaly at epoch: 18.9857°
orbit number at epoch: 91102

The dashed part of the orbit path shows where the satellite is in the earth's shadow,  

DLR